This is the latest recevied weather packets stored in our database for station/object AB4KN. If no packets are shown the sender has not sent any weather packets the latest 10 day(s).
| Time | Temp. | Humidity | Pressure | Rain* | Wind** | Luminosity | Snow |
|---|---|---|---|---|---|---|---|
| 1778183554 | 20.56° C | 82% | 1017.5 hPa | 0 mm | - | 108 W/m² | - |
| 1778183251 | 20.56° C | 82% | 1017.3 hPa | 0 mm | - | 75 W/m² | - |
| 1778182947 | 20.56° C | 82% | 1017.6 hPa | 0 mm | - | 60 W/m² | - |
| 1778182644 | 20.56° C | 82% | 1017.5 hPa | 0 mm | - | 68 W/m² | - |
| 1778182340 | 20.56° C | 82% | 1017.5 hPa | 0 mm | - | 62 W/m² | - |
| 1778182036 | 20.56° C | 83% | 1017.4 hPa | 0 mm | - | 102 W/m² | - |
| 1778181734 | 20° C | 83% | 1017.5 hPa | 0 mm | - | 74 W/m² | - |
| 1778181429 | 20.56° C | 84% | 1017.6 hPa | 0 mm | - | 56 W/m² | - |
| 1778181127 | 20.56° C | 84% | 1017.4 hPa | 0 mm | - | 57 W/m² | - |
| 1778180823 | 20.56° C | 84% | 1017.3 hPa | 0 mm | - | 51 W/m² | - |
| 1778180522 | 20.56° C | 84% | 1017.5 hPa | 0 mm | - | 46 W/m² | - |
| 1778180220 | 20.56° C | 85% | 1017.3 hPa | 0 mm | - | 59 W/m² | - |
| 1778179916 | 20.56° C | 85% | 1017.1 hPa | 0 mm | - | 87 W/m² | - |
| 1778179614 | 20.56° C | 86% | 1017.4 hPa | 0 mm | - | 125 W/m² | - |
| 1778179312 | 20.56° C | 87% | 1017.2 hPa | 0 mm | - | 79 W/m² | - |
| 1778179008 | 20.56° C | 86% | 1017.2 hPa | 0 mm | - | 45 W/m² | - |
| 1778178705 | 20.56° C | 87% | 1017.5 hPa | 0 mm | - | 35 W/m² | - |
| 1778178403 | 20.56° C | 88% | 1017.3 hPa | 0 mm | - | 40 W/m² | - |
| 1778178098 | 20.56° C | 89% | 1017.5 hPa | 0 mm | - | 44 W/m² | - |
| 1778177794 | 20.56° C | 89% | 1017.2 hPa | 0 mm | - | 45 W/m² | - |
| 1778177491 | 20.56° C | 89% | 1017.2 hPa | 0 mm | - | 49 W/m² | - |
| 1778177187 | 20.56° C | 89% | 1017.1 hPa | 0 mm | - | 39 W/m² | - |
| 1778176885 | 20.56° C | 89% | 1017.4 hPa | 0 mm | - | 39 W/m² | - |
| 1778176580 | 20.56° C | 89% | 1017.4 hPa | 0 mm | - | 34 W/m² | - |
| 1778176278 | 20.56° C | 89% | 1017.5 hPa | 0 mm | - | 32 W/m² | - |
* Rain latest hour (hover to see other rain measurements)
** Current wind speed in m/s (hover to see current wind gust speed)